| time (UTC) | temp C | wind direction | speed KPH | gust KPH | rain 1hr cm | rain 24hr cm | rain mn cm | humidity % | barometer mb |
| 20260506161326 | 10 | 257 | 14.5 | 17.7 | 0.00 | 0.00 | 0.00 | 93 | 1019.3 |
| 20260506160817 | 10 | 257 | 16.1 | 19.3 | 0.00 | 0.00 | 0.00 | 93 | 1019.3 |
| 20260506160328 | 10 | 252 | 16.1 | 19.3 | 0.00 | 0.00 | 0.00 | 93 | 1019.3 |
| 20260506155822 | 10 | 265 | 14.5 | 22.5 | 0.00 | 0.00 | 0.00 | 93 | 1019.4 |
| 20260506155314 | 10 | 261 | 17.7 | 27.4 | 0.00 | 0.00 | 0.00 | 93 | 1019.3 |
| 20260506154826 | 10 | 277 | 22.5 | 27.4 | 0.00 | 0.00 | 0.00 | 93 | 1019.5 |
| 20260506154317 | 10 | 275 | 24.1 | 27.4 | 0.00 | 0.00 | 0.00 | 94 | 1019.4 |
| 20260506153829 | 10 | 269 | 22.5 | 25.7 | 0.00 | 0.00 | 0.00 | 94 | 1019.4 |
| 20260506153341 | 10 | 271 | 22.5 | 25.7 | 0.00 | 0.00 | 0.00 | 93 | 1019.5 |
| 20260506152832 | 10 | 270 | 22.5 | 25.7 | 0.00 | 0.00 | 0.00 | 93 | 1019.4 |
| 20260506152320 | 10 | 272 | 19.3 | 25.7 | 0.00 | 0.00 | 0.00 | 94 | 1019.3 |
| 20260506151832 | 10 | 269 | 19.3 | 25.7 | 0.00 | 0.00 | 0.00 | 93 | 1019.3 |
| 20260506151327 | 10 | 277 | 19.3 | 20.9 | 0.00 | 0.00 | 0.00 | 94 | 1019.3 |
| 20260506150819 | 10 | 262 | 14.5 | 20.9 | 0.00 | 0.00 | 0.00 | 94 | 1019.1 |
| 20260506150331 | 10 | 275 | 16.1 | 20.9 | 0.00 | 0.00 | 0.00 | 94 | 1019.1 |
| 20260506145822 | 10 | 265 | 14.5 | 19.3 | 0.00 | 0.00 | 0.00 | 94 | 1019.0 |
| 20260506145314 | 10 | 267 | 12.9 | 20.9 | 0.00 | 0.00 | 0.00 | 94 | 1018.9 |
| 20260506144825 | 10 | 269 | 17.7 | 20.9 | 0.00 | 0.00 | 0.00 | 94 | 1019.1 |
| 20260506144317 | 10 | 274 | 12.9 | 17.7 | 0.00 | 0.00 | 0.00 | 94 | 1019.0 |
| 20260506143828 | 10 | 269 | 12.9 | 16.1 | 0.00 | 0.00 | 0.00 | 94 | 1018.7 |
| 20260506143321 | 10 | 253 | 12.9 | 17.7 | 0.00 | 0.00 | 0.00 | 94 | 1018.7 |
| 20260506142835 | 10 | 271 | 14.5 | 17.7 | 0.00 | 0.00 | 0.00 | 94 | 1018.8 |
| 20260506142326 | 10 | 267 | 14.5 | 17.7 | 0.00 | 0.00 | 0.00 | 94 | 1018.7 |
| 20260506141816 | 10 | 277 | 14.5 | 20.9 | 0.00 | 0.00 | 0.00 | 94 | 1018.8 |
| 20260506141347 | 10 | 279 | 16.1 | 24.1 | 0.00 | 0.00 | 0.00 | 94 | 1018.7 |
| 20260506140817 | 10 | 279 | 20.9 | 24.1 | 0.00 | 0.00 | 0.00 | 94 | 1018.8 |
| 20260506140330 | 10 | 283 | 17.7 | 22.5 | 0.00 | 0.00 | 0.00 | 94 | 1018.8 |
| 20260506135822 | 10 | 269 | 17.7 | 20.9 | 0.00 | 0.00 | 0.00 | 94 | 1018.6 |
| 20260506135315 | 10 | 277 | 16.1 | 25.7 | 0.00 | 0.00 | 0.00 | 94 | 1018.6 |
| 20260506134825 | 10 | 267 | 20.9 | 27.4 | 0.00 | 0.00 | 0.00 | 94 | 1018.6 |
| 20260506134321 | 10 | 282 | 19.3 | 25.7 | 0.00 | 0.00 | 0.00 | 94 | 1018.5 |
| 20260506133830 | 10 | 275 | 20.9 | 24.1 | 0.00 | 0.00 | 0.00 | 94 | 1018.5 |
| 20260506133320 | 10 | 273 | 19.3 | 22.5 | 0.00 | 0.00 | 0.00 | 94 | 1018.5 |
| 20260506132831 | 10 | 266 | 17.7 | 22.5 | 0.00 | 0.00 | 0.00 | 94 | 1018.4 |
| 20260506132323 | 10 | 267 | 19.3 | 22.5 | 0.00 | 0.00 | 0.00 | 94 | 1018.4 |
| 20260506131834 | 10 | 266 | 17.7 | 24.1 | 0.00 | 0.00 | 0.00 | 94 | 1018.3 |
| 20260506131325 | 10 | 269 | 16.1 | 22.5 | 0.00 | 0.00 | 0.00 | 94 | 1018.3 |
| 20260506130817 | 10 | 266 | 19.3 | 24.1 | 0.00 | 0.00 | 0.00 | 94 | 1018.3 |
| 20260506130330 | 10 | 271 | 20.9 | 24.1 | 0.00 | 0.00 | 0.00 | 94 | 1018.2 |
| 20260506125820 | 10 | 263 | 19.3 | 22.5 | 0.00 | 0.00 | 0.00 | 94 | 1018.2 |
| 20260506125335 | 10 | 260 | 20.9 | 24.1 | 0.00 | 0.00 | 0.00 | 94 | 1018.2 |
| 20260506124846 | 10 | 263 | 19.3 | 24.1 | 0.00 | 0.00 | 0.00 | 94 | 1018.2 |
| 20260506124316 | 10 | 268 | 22.5 | 24.1 | 0.00 | 0.00 | 0.00 | 94 | 1018.3 |
| 20260506123828 | 10 | 259 | 17.7 | 25.7 | 0.00 | 0.00 | 0.00 | 94 | 1018.2 |
| 20260506123340 | 10 | 261 | 22.5 | 25.7 | 0.00 | 0.00 | 0.00 | 94 | 1018.3 |
| 20260506122830 | 10 | 260 | 22.5 | 27.4 | 0.00 | 0.00 | 0.00 | 94 | 1018.4 |
| 20260506122342 | 10 | 265 | 22.5 | 27.4 | 0.00 | 0.00 | 0.00 | 94 | 1018.4 |
| 20260506121833 | 10 | 260 | 22.5 | 27.4 | 0.00 | 0.00 | 0.00 | 94 | 1018.4 |
| 20260506121325 | 10 | 252 | 22.5 | 30.6 | 0.00 | 0.00 | 0.00 | 94 | 1018.3 |
| 20260506120816 | 10 | 259 | 27.4 | 30.6 | 0.00 | 0.00 | 0.00 | 94 | 1018.4 |
| 20260506120329 | 10 | 260 | 25.7 | 29.0 | 0.00 | 0.00 | 0.00 | 94 | 1018.2 |
| 20260506115824 | 10 | 255 | 20.9 | 29.0 | 0.00 | 0.00 | 0.00 | 94 | 1018.2 |
| 20260506115336 | 10 | 267 | 24.1 | 30.6 | 0.00 | 0.00 | 0.00 | 94 | 1018.1 |
| 20260506114826 | 10 | 267 | 27.4 | 30.6 | 0.00 | 0.00 | 0.00 | 94 | 1018.2 |
| 20260506114338 | 10 | 265 | 24.1 | 30.6 | 0.00 | 0.00 | 0.00 | 94 | 1018.1 |
| 20260506113828 | 10 | 269 | 25.7 | 30.6 | 0.00 | 0.00 | 0.00 | 94 | 1018.1 |
| 20260506113318 | 10 | 267 | 25.7 | 30.6 | 0.00 | 0.00 | 0.00 | 94 | 1018.0 |
| 20260506112830 | 10 | 257 | 24.1 | 27.4 | 0.00 | 0.00 | 0.00 | 94 | 1018.0 |
| 20260506112322 | 10 | 265 | 24.1 | 30.6 | 0.00 | 0.00 | 0.00 | 94 | 1018.0 |
| 20260506111831 | 10 | 259 | 25.7 | 30.6 | 0.00 | 0.00 | 0.00 | 94 | 1018.0 |
| 20260506111323 | 10 | 261 | 25.7 | 32.2 | 0.00 | 0.00 | 0.00 | 94 | 1018.0 |
| 20260506110818 | 10 | 252 | 25.7 | 32.2 | 0.00 | 0.00 | 0.00 | 94 | 1017.9 |
| 20260506110330 | 10 | 257 | 27.4 | 32.2 | 0.00 | 0.00 | 0.00 | 94 | 1017.8 |
| 20260506105820 | 10 | 259 | 25.7 | 30.6 | 0.00 | 0.00 | 0.00 | 94 | 1017.8 |
| 20260506105332 | 10 | 255 | 25.7 | 33.8 | 0.00 | 0.00 | 0.00 | 94 | 1017.7 |
| 20260506104825 | 10 | 261 | 29.0 | 41.8 | 0.00 | 0.00 | 0.00 | 94 | 1017.8 |
| 20260506104316 | 10 | 263 | 32.2 | 41.8 | 0.00 | 0.00 | 0.00 | 94 | 1017.8 |
| 20260506103828 | 10 | 262 | 27.4 | 33.8 | 0.00 | 0.00 | 0.00 | 94 | 1017.5 |
| 20260506103339 | 10 | 257 | 29.0 | 37.0 | 0.00 | 0.00 | 0.00 | 94 | 1017.5 |
| 20260506102827 | 10 | 263 | 25.7 | 37.0 | 0.00 | 0.00 | 0.00 | 94 | 1017.3 |
| 20260506102318 | 10 | 264 | 27.4 | 32.2 | 0.00 | 0.00 | 0.00 | 94 | 1017.3 |
| 20260506101828 | 10 | 263 | 27.4 | 32.2 | 0.00 | 0.00 | 0.00 | 94 | 1017.3 |
| 20260506101324 | 10 | 269 | 24.1 | 33.8 | 0.00 | 0.00 | 0.00 | 94 | 1017.2 |
| 20260506100814 | 10 | 267 | 27.4 | 33.8 | 0.00 | 0.00 | 0.00 | 94 | 1017.0 |
| 20260506100347 | 10 | 261 | 27.4 | 33.8 | 0.00 | 0.00 | 0.00 | 94 | 1017.1 |
| 20260506095817 | 10 | 261 | 25.7 | 33.8 | 0.00 | 0.00 | 0.00 | 94 | 1017.2 |
| 20260506095329 | 10 | 265 | 29.0 | 33.8 | 0.00 | 0.00 | 0.00 | 95 | 1017.0 |
| 20260506094820 | 10 | 250 | 29.0 | 33.8 | 0.00 | 0.00 | 0.00 | 95 | 1017.1 |
| 20260506094331 | 10 | 256 | 25.7 | 32.2 | 0.00 | 0.00 | 0.00 | 95 | 1017.2 |
| 20260506093821 | 10 | 250 | 25.7 | 32.2 | 0.00 | 0.00 | 0.00 | 95 | 1017.3 |
| 20260506093352 | 10 | 247 | 22.5 | 29.0 | 0.00 | 0.00 | 0.00 | 95 | 1017.3 |
| 20260506092822 | 10 | 246 | 24.1 | 27.4 | 0.00 | 0.00 | 0.00 | 95 | 1017.3 |
| 20260506092318 | 10 | 241 | 22.5 | 27.4 | 0.00 | 0.00 | 0.00 | 95 | 1017.1 |
| 20260506091830 | 10 | 239 | 24.1 | 27.4 | 0.00 | 0.00 | 0.00 | 95 | 1017.2 |
| 20260506091320 | 10 | 239 | 19.3 | 29.0 | 0.00 | 0.00 | 0.00 | 95 | 1017.1 |
| 20260506090831 | 10 | 239 | 24.1 | 29.0 | 0.00 | 0.00 | 0.00 | 95 | 1017.1 |
| 20260506090321 | 10 | 254 | 24.1 | 29.0 | 0.00 | 0.00 | 0.00 | 95 | 1017.1 |
| 20260506085832 | 10 | 250 | 22.5 | 29.0 | 0.00 | 0.00 | 0.00 | 95 | 1017.2 |
| 20260506085342 | 10 | 254 | 22.5 | 29.0 | 0.00 | 0.00 | 0.00 | 95 | 1017.2 |
| 20260506084831 | 10 | 244 | 22.5 | 27.4 | 0.00 | 0.00 | 0.00 | 96 | 1017.1 |
| 20260506084321 | 10 | 241 | 22.5 | 30.6 | 0.00 | 0.00 | 0.00 | 95 | 1017.0 |
| 20260506083833 | 10 | 250 | 22.5 | 29.0 | 0.00 | 0.00 | 0.00 | 96 | 1017.0 |
| 20260506083344 | 10 | 249 | 22.5 | 32.2 | 0.00 | 0.00 | 0.00 | 96 | 1016.9 |
| 20260506082815 | 10 | 246 | 24.1 | 32.2 | 0.00 | 0.00 | 0.00 | 96 | 1017.0 |
| 20260506082347 | 10 | 248 | 25.7 | 32.2 | 0.00 | 0.00 | 0.00 | 96 | 1017.0 |
| 20260506081822 | 10 | 250 | 29.0 | 35.4 | 0.00 | 0.00 | 0.00 | 96 | 1016.9 |
| 20260506081314 | 10 | 242 | 27.4 | 35.4 | 0.00 | 0.00 | 0.00 | 96 | 1016.9 |
| 20260506080826 | 10 | 254 | 27.4 | 32.2 | 0.00 | 0.00 | 0.00 | 96 | 1016.9 |
| 20260506080317 | 10 | 246 | 27.4 | 33.8 | 0.00 | 0.00 | 0.00 | 96 | 1016.9 |
| 20260506073330 | 10 | 254 | 29.0 | 35.4 | 0.00 | 0.00 | 0.00 | 96 | 1016.5 |
| 20260506072821 | 10 | 248 | 27.4 | 37.0 | 0.00 | 0.00 | 0.00 | 96 | 1016.5 |
| 20260506072334 | 10 | 244 | 29.0 | 37.0 | 0.00 | 0.00 | 0.00 | 96 | 1016.4 |
| 20260506071826 | 10 | 252 | 29.0 | 38.6 | 0.00 | 0.00 | 0.00 | 96 | 1016.4 |
| 20260506071317 | 10 | 263 | 29.0 | 40.2 | 0.00 | 0.00 | 0.00 | 96 | 1016.3 |
| 20260506070830 | 10 | 252 | 30.6 | 40.2 | 0.00 | 0.00 | 0.00 | 96 | 1016.3 |
| 20260506070321 | 10 | 252 | 30.6 | 37.0 | 0.00 | 0.00 | 0.00 | 96 | 1016.4 |
| 20260506062315 | 10 | 241 | 27.4 | 32.2 | 0.00 | 0.00 | 0.00 | 96 | 1016.1 |
| 20260506061827 | 10 | 245 | 27.4 | 32.2 | 0.00 | 0.00 | 0.00 | 96 | 1016.1 |
| 20260506061322 | 10 | 249 | 25.7 | 32.2 | 0.00 | 0.00 | 0.00 | 96 | 1016.1 |
| 20260506060814 | 10 | 242 | 25.7 | 32.2 | 0.00 | 0.00 | 0.00 | 96 | 1016.2 |
| 20260506060325 | 10 | 245 | 25.7 | 30.6 | 0.00 | 0.00 | 0.00 | 96 | 1016.2 |
| 20260506051322 | 10 | 246 | 27.4 | 35.4 | 0.00 | 0.00 | 0.00 | 95 | 1016.0 |
| 20260506050833 | 10 | 238 | 25.7 | 35.4 | 0.00 | 0.00 | 0.00 | 95 | 1016.0 |
| 20260506050324 | 10 | 234 | 27.4 | 35.4 | 0.00 | 0.00 | 0.00 | 95 | 1016.1 |
| 20260506044820 | 10 | 242 | 29.0 | 35.4 | 0.00 | 0.00 | 0.00 | 95 | 1015.9 |
| 20260506044331 | 10 | 246 | 29.0 | 35.4 | 0.00 | 0.00 | 0.00 | 95 | 1015.9 |
| 20260506043822 | 10 | 250 | 29.0 | 37.0 | 0.00 | 0.00 | 0.00 | 95 | 1015.9 |
| 20260506043333 | 11 | 242 | 30.6 | 37.0 | 0.00 | 0.00 | 0.00 | 95 | 1015.8 |
| 20260506042826 | 11 | 252 | 30.6 | 37.0 | 0.00 | 0.00 | 0.00 | 95 | 1015.6 |
| 20260506042317 | 11 | 248 | 30.6 | 37.0 | 0.00 | 0.00 | 0.00 | 95 | 1015.5 |
| 20260506041829 | 11 | 259 | 29.0 | 37.0 | 0.00 | 0.00 | 0.00 | 95 | 1015.4 |
| 20260506041321 | 11 | 246 | 29.0 | 37.0 | 0.00 | 0.00 | 0.00 | 95 | 1015.3 |
| 20260506040815 | 11 | 244 | 29.0 | 37.0 | 0.00 | 0.00 | 0.00 | 94 | 1015.0 |
| 20260506040327 | 11 | 248 | 30.6 | 37.0 | 0.00 | 0.00 | 0.00 | 94 | 1015.1 |
| 20260506035819 | 11 | 235 | 29.0 | 35.4 | 0.00 | 0.00 | 0.00 | 94 | 1014.9 |
| 20260506035332 | 11 | 250 | 27.4 | 35.4 | 0.00 | 0.00 | 0.00 | 94 | 1014.9 |
| 20260506034843 | 11 | 250 | 29.0 | 32.2 | 0.00 | 0.00 | 0.00 | 94 | 1014.9 |
| 20260506034334 | 11 | 246 | 27.4 | 32.2 | 0.00 | 0.00 | 0.00 | 94 | 1014.9 |
| 20260506033825 | 11 | 248 | 25.7 | 32.2 | 0.00 | 0.00 | 0.00 | 94 | 1014.7 |
| 20260506033316 | 11 | 246 | 25.7 | 32.2 | 0.00 | 0.00 | 0.00 | 94 | 1014.8 |
| 20260506032828 | 11 | 242 | 25.7 | 33.8 | 0.00 | 0.00 | 0.00 | 94 | 1014.8 |
| 20260506032324 | 11 | 247 | 25.7 | 33.8 | 0.00 | 0.00 | 0.00 | 93 | 1014.7 |
| 20260506031814 | 11 | 241 | 25.7 | 33.8 | 0.00 | 0.00 | 0.00 | 94 | 1014.8 |
| 20260506031326 | 11 | 264 | 27.4 | 33.8 | 0.00 | 0.00 | 0.00 | 93 | 1014.8 |
| 20260506030817 | 11 | 248 | 27.4 | 33.8 | 0.00 | 0.00 | 0.00 | 93 | 1014.7 |
| 20260506030330 | 11 | 252 | 25.7 | 35.4 | 0.00 | 0.00 | 0.00 | 93 | 1014.8 |
| 20260506025819 | 11 | 251 | 27.4 | 35.4 | 0.00 | 0.00 | 0.00 | 93 | 1014.8 |
| 20260506025331 | 11 | 252 | 29.0 | 33.8 | 0.00 | 0.00 | 0.00 | 93 | 1014.7 |
| 20260506024822 | 11 | 242 | 27.4 | 35.4 | 0.00 | 0.00 | 0.00 | 93 | 1014.9 |
| 20260506024335 | 11 | 252 | 27.4 | 35.4 | 0.00 | 0.00 | 0.00 | 93 | 1014.9 |
| 20260506023825 | 11 | 238 | 27.4 | 35.4 | 0.00 | 0.00 | 0.00 | 93 | 1014.9 |
| 20260506023320 | 11 | 248 | 30.6 | 37.0 | 0.00 | 0.00 | 0.00 | 93 | 1014.9 |
| 20260506022832 | 11 | 247 | 27.4 | 33.8 | 0.00 | 0.00 | 0.00 | 93 | 1014.8 |
| 20260506022324 | 11 | 260 | 29.0 | 37.0 | 0.00 | 0.00 | 0.00 | 92 | 1014.8 |
| 20260506021816 | 11 | 250 | 29.0 | 40.2 | 0.00 | 0.00 | 0.00 | 92 | 1014.8 |
| 20260506021328 | 11 | 246 | 30.6 | 40.2 | 0.00 | 0.00 | 0.00 | 92 | 1014.8 |
| 20260506020819 | 11 | 253 | 29.0 | 38.6 | 0.00 | 0.00 | 0.00 | 92 | 1014.8 |
| 20260506020330 | 11 | 248 | 29.0 | 37.0 | 0.00 | 0.00 | 0.00 | 92 | 1014.8 |
| 20260506015821 | 11 | 241 | 27.4 | 38.6 | 0.00 | 0.00 | 0.00 | 91 | 1014.8 |
| 20260506015318 | 11 | 254 | 29.0 | 38.6 | 0.00 | 0.00 | 0.00 | 92 | 1014.8 |
| 20260506014850 | 11 | 257 | 27.4 | 33.8 | 0.00 | 0.00 | 0.00 | 92 | 1014.9 |
| 20260506014339 | 11 | 251 | 25.7 | 33.8 | 0.00 | 0.00 | 0.00 | 92 | 1014.9 |
| 20260506013830 | 11 | 248 | 27.4 | 33.8 | 0.00 | 0.00 | 0.00 | 92 | 1014.9 |
| 20260506013322 | 11 | 241 | 27.4 | 32.2 | 0.00 | 0.00 | 0.00 | 92 | 1014.9 |
| 20260506012834 | 11 | 242 | 27.4 | 32.2 | 0.00 | 0.00 | 0.00 | 92 | 1015.0 |
| 20260506012344 | 11 | 248 | 27.4 | 33.8 | 0.00 | 0.00 | 0.00 | 92 | 1015.0 |
| 20260506011835 | 11 | 246 | 27.4 | 33.8 | 0.00 | 0.00 | 0.00 | 91 | 1014.9 |
| 20260506011346 | 12 | 248 | 25.7 | 30.6 | 0.00 | 0.00 | 0.00 | 91 | 1014.9 |
| 20260506010834 | 12 | 238 | 25.7 | 30.6 | 0.00 | 0.00 | 0.00 | 91 | 1014.9 |
| 20260506010324 | 12 | 244 | 24.1 | 30.6 | 0.00 | 0.00 | 0.00 | 91 | 1015.0 |
| 20260506005834 | 12 | 229 | 22.5 | 29.0 | 0.00 | 0.00 | 0.00 | 91 | 1015.0 |
| 20260506005324 | 12 | 246 | 20.9 | 29.0 | 0.00 | 0.00 | 0.00 | 91 | 1015.0 |
| 20260506004819 | 12 | 251 | 20.9 | 27.4 | 0.00 | 0.00 | 0.00 | 91 | 1015.0 |
| 20260506004330 | 12 | 237 | 22.5 | 29.0 | 0.00 | 0.00 | 0.00 | 91 | 1015.0 |
| 20260506003822 | 12 | 245 | 20.9 | 27.4 | 0.00 | 0.00 | 0.00 | 91 | 1014.9 |
| 20260506003332 | 12 | 251 | 22.5 | 27.4 | 0.00 | 0.00 | 0.00 | 91 | 1014.9 |
| 20260506002844 | 12 | 251 | 24.1 | 27.4 | 0.00 | 0.00 | 0.00 | 91 | 1015.1 |
| 20260506002315 | 12 | 240 | 22.5 | 27.4 | 0.00 | 0.00 | 0.00 | 91 | 1015.1 |
| 20260506001826 | 12 | 244 | 22.5 | 30.6 | 0.00 | 0.00 | 0.00 | 91 | 1015.1 |
| 20260506001317 | 12 | 250 | 24.1 | 30.6 | 0.00 | 0.00 | 0.00 | 90 | 1015.0 |
| 20260506000848 | 12 | 263 | 22.5 | 27.4 | 0.00 | 0.00 | 0.00 | 90 | 1015.0 |
| 20260506000317 | 12 | 246 | 22.5 | 27.4 | 0.00 | 0.00 | 0.00 | 90 | 1015.1 |
| 20260505235828 | 12 | 238 | 22.5 | 27.4 | 0.00 | 0.00 | 0.00 | 90 | 1015.2 |
| 20260505235325 | 12 | 250 | 19.3 | 24.1 | 0.00 | 0.00 | 0.00 | 89 | 1015.3 |
| 20260505234816 | 12 | 252 | 19.3 | 24.1 | 0.00 | 0.00 | 0.00 | 89 | 1015.4 |
| 20260505234350 | 12 | 267 | 16.1 | 19.3 | 0.00 | 0.00 | 0.00 | 89 | 1015.3 |
| 20260505233821 | 13 | 236 | 16.1 | 22.5 | 0.00 | 0.00 | 0.00 | 88 | 1015.4 |
| 20260505233332 | 13 | 236 | 16.1 | 22.5 | 0.00 | 0.00 | 0.00 | 88 | 1015.4 |
| 20260505232824 | 13 | 255 | 14.5 | 22.5 | 0.00 | 0.00 | 0.00 | 88 | 1015.3 |
| 20260505232315 | 13 | 247 | 12.9 | 16.1 | 0.00 | 0.00 | 0.00 | 88 | 1015.5 |
| 20260505231827 | 13 | 248 | 14.5 | 17.7 | 0.00 | 0.00 | 0.00 | 88 | 1015.6 |
| 20260505231316 | 13 | 240 | 14.5 | 16.1 | 0.00 | 0.00 | 0.00 | 87 | 1015.8 |
| 20260505230828 | 13 | 255 | 12.9 | 17.7 | 0.00 | 0.00 | 0.00 | 88 | 1015.8 |
| 20260505230322 | 13 | 244 | 14.5 | 17.7 | 0.00 | 0.00 | 0.00 | 87 | 1015.8 |
| 20260505225833 | 13 | 255 | 11.3 | 16.1 | 0.00 | 0.00 | 0.00 | 88 | 1015.9 |
| 20260505225344 | 13 | 246 | 12.9 | 16.1 | 0.00 | 0.00 | 0.00 | 88 | 1015.9 |
| 20260505224855 | 13 | 245 | 11.3 | 16.1 | 0.00 | 0.00 | 0.00 | 89 | 1015.9 |
| 20260505224325 | 13 | 261 | 11.3 | 14.5 | 0.00 | 0.00 | 0.00 | 89 | 1016.0 |
| 20260505223816 | 13 | 245 | 11.3 | 14.5 | 0.00 | 0.00 | 0.00 | 89 | 1016.0 |
| 20260505223327 | 13 | 245 | 8.0 | 12.9 | 0.00 | 0.00 | 0.00 | 90 | 1016.0 |
| 20260505222818 | 13 | 265 | 6.4 | 9.7 | 0.00 | 0.00 | 0.00 | 90 | 1016.1 |
| 20260505222328 | 13 | 274 | 6.4 | 11.3 | 0.00 | 0.00 | 0.00 | 90 | 1016.0 |
| 20260505221820 | 13 | 281 | 9.7 | 12.9 | 0.00 | 0.00 | 0.00 | 90 | 1016.1 |
| 20260505221316 | 13 | 257 | 9.7 | 12.9 | 0.00 | 0.00 | 0.00 | 91 | 1016.1 |
| 20260505220827 | 13 | 256 | 9.7 | 12.9 | 0.00 | 0.00 | 0.00 | 91 | 1016.2 |
| 20260505220317 | 12 | 261 | 9.7 | 12.9 | 0.00 | 0.00 | 0.00 | 92 | 1016.3 |
| 20260505215828 | 12 | 280 | 9.7 | 12.9 | 0.00 | 0.00 | 0.00 | 92 | 1016.4 |
| 20260505215319 | 12 | 270 | 9.7 | 12.9 | 0.00 | 0.00 | 0.00 | 93 | 1016.3 |
| 20260505214829 | 12 | 279 | 9.7 | 11.3 | 0.00 | 0.00 | 0.00 | 94 | 1016.3 |
| 20260505214321 | 12 | 282 | 9.7 | 11.3 | 0.00 | 0.00 | 0.00 | 94 | 1016.4 |
| 20260505213833 | 12 | 276 | 9.7 | 12.9 | 0.00 | 0.00 | 0.00 | 94 | 1016.4 |
| 20260505213323 | 12 | 281 | 9.7 | 12.9 | 0.00 | 0.00 | 0.00 | 94 | 1016.6 |
| 20260505212840 | 12 | 276 | 11.3 | 12.9 | 0.00 | 0.00 | 0.00 | 93 | 1016.6 |
| 20260505212329 | 12 | 279 | 9.7 | 12.9 | 0.00 | 0.00 | 0.00 | 94 | 1016.5 |
| 20260505211819 | 12 | 288 | 11.3 | 12.9 | 0.00 | 0.00 | 0.00 | 94 | 1016.5 |
| 20260505211332 | 12 | 287 | 9.7 | 12.9 | 0.00 | 0.00 | 0.00 | 94 | 1016.5 |
| 20260505210822 | 12 | 288 | 11.3 | 14.5 | 0.00 | 0.00 | 0.00 | 94 | 1016.6 |
| 20260505210314 | 11 | 294 | 11.3 | 14.5 | 0.00 | 0.00 | 0.00 | 94 | 1016.5 |
| 20260505205825 | 12 | 285 | 12.9 | 14.5 | 0.00 | 0.00 | 0.00 | 94 | 1016.5 |
| 20260505205317 | 12 | 273 | 11.3 | 12.9 | 0.00 | 0.00 | 0.00 | 94 | 1016.5 |
| 20260505204829 | 12 | 268 | 9.7 | 11.3 | 0.00 | 0.00 | 0.00 | 94 | 1016.5 |
| 20260505204325 | 12 | 282 | 8.0 | 12.9 | 0.00 | 0.00 | 0.00 | 94 | 1016.4 |
| 20260505203817 | 12 | 285 | 9.7 | 14.5 | 0.00 | 0.00 | 0.00 | 94 | 1016.5 |
| 20260505203328 | 12 | 275 | 12.9 | 14.5 | 0.00 | 0.00 | 0.00 | 93 | 1016.5 |
| 20260505202821 | 12 | 286 | 11.3 | 14.5 | 0.00 | 0.00 | 0.00 | 93 | 1016.5 |
| 20260505202332 | 12 | 279 | 12.9 | 14.5 | 0.00 | 0.00 | 0.00 | 93 | 1016.5 |
| 20260505201823 | 12 | 269 | 11.3 | 14.5 | 0.00 | 0.00 | 0.00 | 93 | 1016.5 |
| 20260505201315 | 12 | 263 | 9.7 | 12.9 | 0.00 | 0.00 | 0.00 | 93 | 1016.5 |
| 20260505200826 | 12 | 275 | 8.0 | 9.7 | 0.00 | 0.00 | 0.00 | 93 | 1016.6 |
| 20260505200322 | 12 | 283 | 6.4 | 9.7 | 0.00 | 0.00 | 0.00 | 93 | 1016.5 |
| 20260505195833 | 12 | 281 | 6.4 | 9.7 | 0.00 | 0.00 | 0.00 | 93 | 1016.6 |
| 20260505195325 | 12 | 287 | 6.4 | 9.7 | 0.00 | 0.00 | 0.00 | 93 | 1016.5 |
| 20260505194817 | 12 | 267 | 4.8 | 9.7 | 0.00 | 0.00 | 0.00 | 94 | 1016.5 |
| 20260505194328 | 12 | 277 | 6.4 | 9.7 | 0.00 | 0.00 | 0.00 | 93 | 1016.5 |
| 20260505193818 | 12 | 271 | 6.4 | 9.7 | 0.00 | 0.00 | 0.00 | 94 | 1016.5 |
| 20260505193329 | 12 | 261 | 6.4 | 8.0 | 0.00 | 0.00 | 0.00 | 94 | 1016.5 |
| 20260505192839 | 12 | 275 | 4.8 | 11.3 | 0.00 | 0.00 | 0.00 | 94 | 1016.5 |
| 20260505192329 | 12 | 269 | 6.4 | 11.3 | 0.00 | 0.00 | 0.00 | 94 | 1016.4 |
| 20260505191821 | 12 | 269 | 6.4 | 11.3 | 0.00 | 0.00 | 0.00 | 95 | 1016.4 |
| 20260505191317 | 11 | 268 | 6.4 | 11.3 | 0.00 | 0.00 | 0.00 | 95 | 1016.5 |
| 20260505190829 | 11 | 267 | 6.4 | 11.3 | 0.00 | 0.00 | 0.00 | 95 | 1016.4 |
| 20260505190320 | 11 | 264 | 8.0 | 9.7 | 0.00 | 0.00 | 0.00 | 95 | 1016.4 |
| 20260505185852 | 11 | 266 | 6.4 | 9.7 | 0.00 | 0.00 | 0.00 | 95 | 1016.3 |
| 20260505185322 | 11 | 265 | 4.8 | 9.7 | 0.00 | 0.00 | 0.00 | 95 | 1016.4 |
| 20260505184814 | 11 | 271 | 6.4 | 9.7 | 0.00 | 0.00 | 0.00 | 95 | 1016.4 |
| 20260505184326 | 11 | 263 | 4.8 | 9.7 | 0.00 | 0.00 | 0.00 | 95 | 1016.4 |
| 20260505183836 | 11 | 276 | 6.4 | 9.7 | 0.00 | 0.00 | 0.00 | 95 | 1016.4 |
| 20260505183327 | 11 | 272 | 8.0 | 11.3 | 0.00 | 0.00 | 0.00 | 95 | 1016.4 |
| 20260505182821 | 11 | 290 | 6.4 | 12.9 | 0.00 | 0.00 | 0.00 | 95 | 1016.4 |
| 20260505182333 | 11 | 292 | 9.7 | 12.9 | 0.00 | 0.00 | 0.00 | 95 | 1016.4 |
| 20260505181824 | 11 | 290 | 11.3 | 12.9 | 0.00 | 0.00 | 0.00 | 95 | 1016.3 |
| 20260505181316 | 11 | 284 | 8.0 | 14.5 | 0.00 | 0.00 | 0.00 | 95 | 1016.2 |
| 20260505180827 | 11 | 295 | 11.3 | 14.5 | 0.00 | 0.00 | 0.00 | 95 | 1016.3 |
| 20260505180319 | 11 | 308 | 9.7 | 14.5 | 0.00 | 0.00 | 0.00 | 95 | 1016.2 |
| 20260505175830 | 11 | 291 | 11.3 | 14.5 | 0.00 | 0.00 | 0.00 | 96 | 1016.3 |
| 20260505175322 | 11 | 279 | 8.0 | 12.9 | 0.00 | 0.00 | 0.00 | 96 | 1016.2 |
| 20260505174818 | 11 | 296 | 9.7 | 12.9 | 0.00 | 0.00 | 0.00 | 96 | 1016.1 |
| 20260505174329 | 11 | 292 | 4.8 | 11.3 | 0.00 | 0.00 | 0.00 | 96 | 1016.1 |
| 20260505173821 | 11 | 293 | 6.4 | 11.3 | 0.00 | 0.00 | 0.00 | 97 | 1016.0 |
| 20260505173329 | 11 | 275 | 4.8 | 6.4 | 0.00 | 0.00 | 0.00 | 97 | 1016.1 |
| 20260505172821 | 11 | 275 | 4.8 | 9.7 | 0.00 | 0.00 | 0.00 | 97 | 1016.0 |
| 20260505172332 | 11 | 275 | 4.8 | 9.7 | 0.00 | 0.00 | 0.00 | 97 | 1016.0 |
| 20260505171845 | 11 | 275 | 4.8 | 6.4 | 0.00 | 0.00 | 0.00 | 97 | 1015.9 |
| 20260505171314 | 11 | 275 | 3.2 | 6.4 | 0.00 | 0.00 | 0.00 | 97 | 1015.9 |
| 20260505170847 | 11 | 275 | 3.2 | 6.4 | 0.00 | 0.00 | 0.00 | 97 | 1016.0 |
| 20260505170317 | 11 | 275 | 3.2 | 4.8 | 0.00 | 0.00 | 0.00 | 97 | 1016.0 |
| 20260505165849 | 11 | 275 | 3.2 | 6.4 | 0.00 | 0.00 | 0.00 | 98 | 1015.8 |
| 20260505165323 | 11 | 275 | 3.2 | 6.4 | 0.00 | 0.00 | 0.00 | 98 | 1015.9 |
| 20260505164815 | 11 | 275 | 4.8 | 6.4 | 0.00 | 0.00 | 0.00 | 98 | 1016.0 |
| 20260505164327 | 10 | 275 | 3.2 | 6.4 | 0.00 | 0.00 | 0.00 | 98 | 1016.0 |
| 20260505163818 | 10 | 275 | 4.8 | 6.4 | 0.00 | 0.00 | 0.00 | 98 | 1016.0 |
| 20260505163350 | 10 | 275 | 4.8 | 9.7 | 0.00 | 0.00 | 0.00 | 98 | 1015.9 |
| 20260505162820 | 10 | 275 | 8.0 | 9.7 | 0.00 | 0.00 | 0.00 | 98 | 1016.0 |
| 20260505162332 | 10 | 275 | 8.0 | 9.7 | 0.00 | 0.00 | 0.00 | 98 | 1015.9 |
| 20260505161824 | 10 | 275 | 4.8 | 6.4 | 0.00 | 0.00 | 0.00 | 98 | 1015.9 |